| time (UTC) | temp F | wind direction | speed MPH | gust MPH | rain 1hr in | rain 24hr in | rain mn in | humidity % | barometer mb |
| 20260903075600 | 82 | 195 | 3.0 | 10.0 | 0.00 | 0.00 | 0.00 | 64 | 1010.7 |
| 20260903075036 | 82 | 89 | 3.0 | 11.0 | 0.00 | 0.00 | 0.00 | 64 | 1010.8 |
| 20260903074532 | 82 | 189 | 2.0 | 7.0 | 0.00 | 0.00 | 0.00 | 64 | 1010.8 |
| 20260903074048 | 82 | 186 | 3.0 | 6.0 | 0.00 | 0.00 | 0.00 | 65 | 1010.8 |
| 20260903073545 | 82 | 154 | 3.0 | 8.0 | 0.00 | 0.00 | 0.00 | 64 | 1010.8 |
| 20260903073101 | 82 | 195 | 2.0 | 10.0 | 0.00 | 0.00 | 0.00 | 64 | 1010.8 |
| 20260903072537 | 82 | 202 | 3.0 | 9.0 | 0.00 | 0.00 | 0.00 | 64 | 1010.8 |
| 20260903072053 | 82 | 168 | 4.0 | 9.0 | 0.00 | 0.00 | 0.00 | 64 | 1010.8 |
| 20260903071533 | 82 | 175 | 2.0 | 8.0 | 0.00 | 0.00 | 0.00 | 64 | 1010.8 |
| 20260903071048 | 82 | 191 | 2.0 | 9.0 | 0.00 | 0.00 | 0.00 | 64 | 1010.7 |
| 20260903070615 | 82 | 152 | 2.0 | 9.0 | 0.00 | 0.00 | 0.00 | 64 | 1010.8 |
| 20260903070032 | 83 | 197 | 3.0 | 9.0 | 0.00 | 0.00 | 0.00 | 63 | 1010.8 |
| 20260903065609 | 83 | 200 | 3.0 | 9.0 | 0.00 | 0.00 | 0.00 | 63 | 1010.8 |
| 20260903065045 | 83 | 184 | 2.0 | 6.0 | 0.00 | 0.00 | 0.00 | 63 | 1010.8 |
| 20260903064540 | 83 | 179 | 2.0 | 6.0 | 0.00 | 0.00 | 0.00 | 63 | 1010.8 |
| 20260903064037 | 83 | 170 | 2.0 | 10.0 | 0.00 | 0.00 | 0.00 | 62 | 1010.8 |
| 20260903063532 | 84 | 205 | 2.0 | 9.0 | 0.00 | 0.00 | 0.00 | 62 | 1010.8 |
| 20260903063048 | 84 | 203 | 3.0 | 9.0 | 0.00 | 0.00 | 0.00 | 62 | 1010.9 |
| 20260903062606 | 84 | 188 | 3.0 | 8.0 | 0.00 | 0.00 | 0.00 | 62 | 1010.9 |
| 20260903062103 | 84 | 183 | 3.0 | 7.0 | 0.00 | 0.00 | 0.00 | 62 | 1010.9 |
| 20260903061537 | 84 | 185 | 3.0 | 11.0 | 0.00 | 0.00 | 0.00 | 62 | 1010.9 |
| 20260903061035 | 84 | 188 | 4.0 | 11.0 | 0.00 | 0.00 | 0.00 | 62 | 1010.9 |
| 20260903060606 | 84 | 192 | 4.0 | 11.0 | 0.00 | 0.00 | 0.00 | 62 | 1010.9 |
| 20260903060039 | 84 | 181 | 3.0 | 11.0 | 0.00 | 0.00 | 0.00 | 62 | 1010.9 |
| 20260903055537 | 84 | 175 | 5.0 | 10.0 | 0.00 | 0.00 | 0.00 | 62 | 1010.9 |
| 20260903055031 | 84 | 153 | 3.0 | 8.0 | 0.00 | 0.00 | 0.00 | 62 | 1010.8 |
| 20260903054609 | 84 | 188 | 4.0 | 8.0 | 0.00 | 0.00 | 0.00 | 62 | 1010.9 |
| 20260903054106 | 84 | 193 | 2.0 | 11.0 | 0.00 | 0.00 | 0.00 | 62 | 1010.9 |
| 20260903053603 | 84 | 193 | 4.0 | 11.0 | 0.00 | 0.00 | 0.00 | 62 | 1010.9 |
| 20260903053037 | 84 | 189 | 3.0 | 8.0 | 0.00 | 0.00 | 0.00 | 62 | 1010.8 |
| 20260903052534 | 84 | 193 | 3.0 | 8.0 | 0.00 | 0.00 | 0.00 | 62 | 1010.8 |
| 20260903052051 | 84 | 186 | 2.0 | 10.0 | 0.00 | 0.00 | 0.00 | 62 | 1010.8 |
| 20260903051609 | 84 | 221 | 3.0 | 10.0 | 0.00 | 0.00 | 0.00 | 62 | 1010.8 |
| 20260903051044 | 84 | 179 | 3.0 | 9.0 | 0.00 | 0.00 | 0.00 | 62 | 1010.8 |
| 20260903050552 | 84 | 188 | 4.0 | 9.0 | 0.00 | 0.00 | 0.00 | 62 | 1010.8 |
| 20260903050029 | 84 | 176 | 3.0 | 7.0 | 0.00 | 0.00 | 0.00 | 62 | 1010.9 |
| 20260903045557 | 84 | 198 | 3.0 | 8.0 | 0.00 | 0.00 | 0.00 | 62 | 1010.8 |
| 20260903045037 | 84 | 173 | 2.0 | 8.0 | 0.00 | 0.00 | 0.00 | 62 | 1010.9 |
| 20260903044532 | 84 | 181 | 2.0 | 8.0 | 0.00 | 0.00 | 0.00 | 62 | 1010.9 |
| 20260903044111 | 84 | 202 | 2.0 | 9.0 | 0.00 | 0.00 | 0.00 | 62 | 1010.9 |
| 20260903043544 | 84 | 183 | 3.0 | 9.0 | 0.00 | 0.00 | 0.00 | 62 | 1010.9 |
| 20260903043041 | 84 | 162 | 2.0 | 5.0 | 0.00 | 0.00 | 0.00 | 62 | 1010.9 |
| 20260903042536 | 84 | 153 | 2.0 | 8.0 | 0.00 | 0.00 | 0.00 | 62 | 1010.8 |
| 20260903042052 | 84 | 162 | 2.0 | 8.0 | 0.00 | 0.00 | 0.00 | 62 | 1010.8 |
| 20260903041535 | 84 | 174 | 2.0 | 4.0 | 0.00 | 0.00 | 0.00 | 62 | 1010.8 |
| 20260903041033 | 84 | 171 | 2.0 | 4.0 | 0.00 | 0.00 | 0.00 | 63 | 1010.8 |
| 20260903040607 | 85 | 207 | 2.0 | 6.0 | 0.00 | 0.00 | 0.00 | 62 | 1010.8 |
| 20260903040041 | 85 | 219 | 2.0 | 8.0 | 0.00 | 0.00 | 0.00 | 62 | 1010.8 |
| 20260903035536 | 85 | 170 | 2.0 | 8.0 | 0.00 | 0.00 | 0.00 | 62 | 1010.8 |
| 20260903035034 | 85 | 175 | 2.0 | 6.0 | 0.00 | 0.00 | 0.00 | 61 | 1010.8 |
| 20260903034531 | 85 | 151 | 2.0 | 7.0 | 0.00 | 0.00 | 0.00 | 61 | 1010.8 |
| 20260903034047 | 86 | 180 | 2.0 | 7.0 | 0.00 | 0.00 | 0.00 | 61 | 1010.8 |
| 20260903033543 | 86 | 186 | 3.0 | 8.0 | 0.00 | 0.00 | 0.00 | 60 | 1010.8 |
| 20260903033039 | 86 | 159 | 3.0 | 8.0 | 0.00 | 0.00 | 0.00 | 60 | 1010.8 |
| 20260903032536 | 86 | 165 | 2.0 | 6.0 | 0.00 | 0.00 | 0.00 | 60 | 1010.8 |
| 20260903032053 | 86 | 147 | 3.0 | 9.0 | 0.00 | 0.00 | 0.00 | 60 | 1010.8 |
| 20260903031547 | 86 | 179 | 3.0 | 9.0 | 0.00 | 0.00 | 0.00 | 60 | 1010.7 |
| 20260903031043 | 86 | 163 | 3.0 | 9.0 | 0.00 | 0.00 | 0.00 | 60 | 1010.7 |
| 20260903030613 | 86 | 197 | 3.0 | 8.0 | 0.00 | 0.00 | 0.00 | 60 | 1010.7 |
| 20260903030111 | 86 | 218 | 3.0 | 7.0 | 0.00 | 0.00 | 0.00 | 60 | 1010.7 |
| 20260903025545 | 87 | 181 | 2.0 | 9.0 | 0.00 | 0.00 | 0.00 | 60 | 1010.8 |
| 20260903025043 | 87 | 181 | 3.0 | 9.0 | 0.00 | 0.00 | 0.00 | 59 | 1010.7 |
| 20260903024543 | 87 | 172 | 2.0 | 7.0 | 0.00 | 0.00 | 0.00 | 59 | 1010.7 |
| 20260903024102 | 87 | 193 | 3.0 | 7.0 | 0.00 | 0.00 | 0.00 | 59 | 1010.6 |
| 20260903023556 | 87 | 175 | 3.0 | 7.0 | 0.00 | 0.00 | 0.00 | 59 | 1010.6 |
| 20260903023050 | 87 | 195 | 2.0 | 6.0 | 0.00 | 0.00 | 0.00 | 60 | 1010.6 |
| 20260903022548 | 87 | 173 | 3.0 | 7.0 | 0.00 | 0.00 | 0.00 | 59 | 1010.5 |
| 20260903022043 | 87 | 189 | 2.0 | 7.0 | 0.00 | 0.00 | 0.00 | 60 | 1010.4 |
| 20260903021539 | 87 | 203 | 2.0 | 4.0 | 0.00 | 0.00 | 0.00 | 60 | 1010.5 |
| 20260903021036 | 87 | 186 | 2.0 | 6.0 | 0.00 | 0.00 | 0.00 | 61 | 1010.4 |
| 20260903020609 | 87 | 186 | 2.0 | 6.0 | 0.00 | 0.00 | 0.00 | 61 | 1010.4 |
| 20260903020040 | 87 | 145 | 2.0 | 4.0 | 0.00 | 0.00 | 0.00 | 61 | 1010.2 |
| 20260903015536 | 88 | 189 | 2.0 | 4.0 | 0.00 | 0.00 | 0.00 | 60 | 1010.2 |
| 20260903015032 | 88 | 169 | 2.0 | 4.0 | 0.00 | 0.00 | 0.00 | 59 | 1010.2 |
| 20260903014548 | 88 | 176 | 2.0 | 4.0 | 0.00 | 0.00 | 0.00 | 59 | 1010.2 |
| 20260903014107 | 89 | 179 | 2.0 | 5.0 | 0.00 | 0.00 | 0.00 | 59 | 1010.1 |
| 20260903013543 | 89 | 186 | 2.0 | 5.0 | 0.00 | 0.00 | 0.00 | 58 | 1010.1 |
| 20260903013038 | 89 | 190 | 2.0 | 7.0 | 0.00 | 0.00 | 0.00 | 57 | 1010.1 |
| 20260903012535 | 90 | 202 | 2.0 | 7.0 | 0.00 | 0.00 | 0.00 | 56 | 1010.0 |
| 20260903012050 | 90 | 200 | 2.0 | 5.0 | 0.00 | 0.00 | 0.00 | 56 | 1010.0 |
| 20260903011546 | 90 | 186 | 2.0 | 4.0 | 0.00 | 0.00 | 0.00 | 55 | 1009.9 |
| 20260903011104 | 90 | 195 | 2.0 | 5.0 | 0.00 | 0.00 | 0.00 | 55 | 1010.0 |
| 20260903010552 | 91 | 171 | 2.0 | 5.0 | 0.00 | 0.00 | 0.00 | 54 | 1009.9 |
| 20260903010033 | 91 | 155 | 2.0 | 7.0 | 0.00 | 0.00 | 0.00 | 54 | 1009.9 |
| 20260903005550 | 91 | 170 | 3.0 | 7.0 | 0.00 | 0.00 | 0.00 | 53 | 1009.9 |
| 20260903005046 | 92 | 200 | 1.0 | 8.0 | 0.00 | 0.00 | 0.00 | 53 | 1009.9 |
| 20260903004541 | 92 | 195 | 2.0 | 5.0 | 0.00 | 0.00 | 0.00 | 53 | 1010.0 |
| 20260903004101 | 92 | 191 | 2.0 | 5.0 | 0.00 | 0.00 | 0.00 | 52 | 1010.1 |
| 20260903003535 | 93 | 199 | 2.0 | 6.0 | 0.00 | 0.00 | 0.00 | 51 | 1010.0 |
| 20260903003051 | 93 | 191 | 2.0 | 9.0 | 0.00 | 0.00 | 0.00 | 51 | 1010.0 |
| 20260903002547 | 93 | 197 | 3.0 | 9.0 | 0.00 | 0.00 | 0.00 | 51 | 1010.0 |
| 20260903002042 | 94 | 184 | 3.0 | 10.0 | 0.00 | 0.00 | 0.00 | 50 | 1010.0 |
| 20260903001538 | 94 | 178 | 3.0 | 12.0 | 0.00 | 0.00 | 0.00 | 50 | 1010.0 |
| 20260903001035 | 94 | 198 | 4.0 | 12.0 | 0.00 | 0.00 | 0.00 | 50 | 1010.0 |
| 20260903000609 | 94 | 181 | 3.0 | 10.0 | 0.00 | 0.00 | 0.00 | 50 | 1010.0 |
| 20260903000044 | 95 | 195 | 4.0 | 10.0 | 0.00 | 0.00 | 0.00 | 50 | 1010.0 |
| 20260902235538 | 95 | 217 | 4.0 | 7.0 | 0.00 | 0.00 | 0.00 | 50 | 1010.0 |
| 20260902235035 | 95 | 184 | 3.0 | 7.0 | 0.00 | 0.00 | 0.00 | 49 | 1010.0 |
| 20260902234532 | 96 | 207 | 3.0 | 7.0 | 0.00 | 0.00 | 0.00 | 48 | 1010.1 |
| 20260902234048 | 96 | 188 | 3.0 | 8.0 | 0.00 | 0.00 | 0.00 | 47 | 1010.1 |
| 20260902233544 | 96 | 210 | 4.0 | 10.0 | 0.00 | 0.00 | 0.00 | 46 | 1010.1 |
| 20260902233102 | 97 | 199 | 2.0 | 7.0 | 0.00 | 0.00 | 0.00 | 45 | 1010.1 |
| 20260902232557 | 97 | 213 | 4.0 | 10.0 | 0.00 | 0.00 | 0.00 | 47 | 1010.0 |
| 20260902232035 | 97 | 207 | 3.0 | 10.0 | 0.00 | 0.00 | 0.00 | 47 | 1010.0 |
| 20260902231532 | 97 | 180 | 3.0 | 6.0 | 0.00 | 0.00 | 0.00 | 47 | 1010.0 |
| 20260902231048 | 97 | 184 | 3.0 | 9.0 | 0.00 | 0.00 | 0.00 | 48 | 1010.0 |
| 20260902230556 | 97 | 198 | 5.0 | 9.0 | 0.00 | 0.00 | 0.00 | 47 | 1010.0 |
| 20260902230034 | 96 | 195 | 4.0 | 9.0 | 0.00 | 0.00 | 0.00 | 47 | 1010.1 |
| 20260902225550 | 96 | 194 | 5.0 | 9.0 | 0.00 | 0.00 | 0.00 | 47 | 1010.0 |
| 20260902225046 | 97 | 186 | 4.0 | 8.0 | 0.00 | 0.00 | 0.00 | 47 | 1010.1 |
| 20260902224541 | 97 | 191 | 3.0 | 8.0 | 0.00 | 0.00 | 0.00 | 47 | 1010.1 |
| 20260902224038 | 97 | 210 | 4.0 | 9.0 | 0.00 | 0.00 | 0.00 | 46 | 1010.1 |
| 20260902223534 | 97 | 214 | 4.0 | 10.0 | 0.00 | 0.00 | 0.00 | 46 | 1010.1 |
| 20260902223030 | 97 | 195 | 5.0 | 10.0 | 0.00 | 0.00 | 0.00 | 45 | 1010.1 |
| 20260902222548 | 96 | 191 | 5.0 | 10.0 | 0.00 | 0.00 | 0.00 | 45 | 1010.2 |
| 20260902222106 | 96 | 214 | 5.0 | 18.0 | 0.00 | 0.00 | 0.00 | 45 | 1010.2 |
| 20260902221541 | 97 | 202 | 6.0 | 18.0 | 0.00 | 0.00 | 0.00 | 45 | 1010.3 |
| 20260902221038 | 97 | 224 | 4.0 | 10.0 | 0.00 | 0.00 | 0.00 | 46 | 1010.3 |
| 20260902220611 | 96 | 191 | 4.0 | 12.0 | 0.00 | 0.00 | 0.00 | 46 | 1010.3 |
| 20260902220043 | 97 | 214 | 6.0 | 12.0 | 0.00 | 0.00 | 0.00 | 44 | 1010.3 |
| 20260902215538 | 97 | 222 | 5.0 | 15.0 | 0.00 | 0.00 | 0.00 | 45 | 1010.3 |
| 20260902215039 | 97 | 229 | 6.0 | 16.0 | 0.00 | 0.00 | 0.00 | 45 | 1010.3 |
| 20260902214535 | 97 | 200 | 8.0 | 16.0 | 0.00 | 0.00 | 0.00 | 44 | 1010.4 |
| 20260902214052 | 97 | 193 | 8.0 | 13.0 | 0.00 | 0.00 | 0.00 | 44 | 1010.4 |
| 20260902213546 | 97 | 172 | 7.0 | 13.0 | 0.00 | 0.00 | 0.00 | 44 | 1010.4 |
| 20260902213105 | 97 | 191 | 8.0 | 13.0 | 0.00 | 0.00 | 0.00 | 45 | 1010.4 |
| 20260902212540 | 97 | 174 | 6.0 | 13.0 | 0.00 | 0.00 | 0.00 | 45 | 1010.4 |
| 20260902212036 | 97 | 207 | 6.0 | 13.0 | 0.00 | 0.00 | 0.00 | 45 | 1010.4 |
| 20260902211532 | 97 | 224 | 6.0 | 16.0 | 0.00 | 0.00 | 0.00 | 45 | 1010.4 |
| 20260902211048 | 97 | 190 | 8.0 | 13.0 | 0.00 | 0.00 | 0.00 | 45 | 1010.5 |
| 20260902210557 | 97 | 193 | 5.0 | 12.0 | 0.00 | 0.00 | 0.00 | 45 | 1010.5 |
| 20260902210034 | 97 | 110 | 4.0 | 9.0 | 0.00 | 0.00 | 0.00 | 45 | 1010.5 |
| 20260902205550 | 97 | 238 | 4.0 | 13.0 | 0.00 | 0.00 | 0.00 | 45 | 1010.6 |
| 20260902205045 | 97 | 168 | 5.0 | 13.0 | 0.00 | 0.00 | 0.00 | 44 | 1010.7 |
| 20260902204604 | 97 | 218 | 6.0 | 13.0 | 0.00 | 0.00 | 0.00 | 45 | 1010.6 |
| 20260902204039 | 97 | 186 | 5.0 | 12.0 | 0.00 | 0.00 | 0.00 | 46 | 1010.6 |
| 20260902203536 | 97 | 185 | 3.0 | 12.0 | 0.00 | 0.00 | 0.00 | 48 | 1010.7 |
| 20260902203053 | 96 | 198 | 5.0 | 12.0 | 0.00 | 0.00 | 0.00 | 46 | 1010.7 |
| 20260902202546 | 96 | 232 | 3.0 | 9.0 | 0.00 | 0.00 | 0.00 | 48 | 1010.8 |
| 20260902202043 | 96 | 195 | 5.0 | 12.0 | 0.00 | 0.00 | 0.00 | 46 | 1010.8 |
| 20260902201559 | 97 | 227 | 5.0 | 12.0 | 0.00 | 0.00 | 0.00 | 46 | 1010.9 |
| 20260902201035 | 97 | 255 | 5.0 | 11.0 | 0.00 | 0.00 | 0.00 | 44 | 1010.9 |
| 20260902200609 | 97 | 208 | 6.0 | 20.0 | 0.00 | 0.00 | 0.00 | 43 | 1010.8 |
| 20260902200044 | 97 | 202 | 4.0 | 21.0 | 0.00 | 0.00 | 0.00 | 44 | 1010.9 |
| 20260902195538 | 97 | 172 | 5.0 | 15.0 | 0.00 | 0.00 | 0.00 | 45 | 1011.0 |
| 20260902195034 | 96 | 214 | 5.0 | 13.0 | 0.00 | 0.00 | 0.00 | 46 | 1011.0 |
| 20260902194534 | 96 | 176 | 4.0 | 12.0 | 0.00 | 0.00 | 0.00 | 47 | 1011.1 |
| 20260902194030 | 95 | 237 | 5.0 | 12.0 | 0.00 | 0.00 | 0.00 | 48 | 1011.2 |
| 20260902193547 | 94 | 196 | 5.0 | 10.0 | 0.00 | 0.00 | 0.00 | 49 | 1011.2 |
| 20260902193041 | 94 | 201 | 4.0 | 13.0 | 0.00 | 0.00 | 0.00 | 48 | 1011.1 |
| 20260902192537 | 94 | 191 | 6.0 | 15.0 | 0.00 | 0.00 | 0.00 | 47 | 1011.2 |
| 20260902192033 | 94 | 188 | 9.0 | 15.0 | 0.00 | 0.00 | 0.00 | 45 | 1011.2 |
| 20260902191549 | 95 | 158 | 8.0 | 15.0 | 0.00 | 0.00 | 0.00 | 47 | 1011.3 |
| 20260902191044 | 95 | 214 | 6.0 | 14.0 | 0.00 | 0.00 | 0.00 | 46 | 1011.4 |
| 20260902190552 | 95 | 200 | 5.0 | 13.0 | 0.00 | 0.00 | 0.00 | 47 | 1011.4 |
| 20260902190049 | 94 | 175 | 7.0 | 13.0 | 0.00 | 0.00 | 0.00 | 48 | 1011.4 |
| 20260902185606 | 94 | 191 | 5.0 | 13.0 | 0.00 | 0.00 | 0.00 | 47 | 1011.5 |
| 20260902185104 | 94 | 198 | 3.0 | 13.0 | 0.00 | 0.00 | 0.00 | 48 | 1011.5 |
| 20260902184539 | 94 | 226 | 6.0 | 15.0 | 0.00 | 0.00 | 0.00 | 48 | 1011.6 |
| 20260902184036 | 94 | 211 | 4.0 | 10.0 | 0.00 | 0.00 | 0.00 | 49 | 1011.7 |
| 20260902183532 | 93 | 158 | 4.0 | 8.0 | 0.00 | 0.00 | 0.00 | 52 | 1011.7 |
| 20260902183048 | 93 | 193 | 4.0 | 13.0 | 0.00 | 0.00 | 0.00 | 49 | 1011.8 |
| 20260902182544 | 94 | 259 | 6.0 | 14.0 | 0.00 | 0.00 | 0.00 | 48 | 1011.9 |
| 20260902182041 | 94 | 198 | 6.0 | 12.0 | 0.00 | 0.00 | 0.00 | 48 | 1011.8 |
| 20260902181557 | 94 | 244 | 5.0 | 9.0 | 0.00 | 0.00 | 0.00 | 50 | 1011.8 |
| 20260902181033 | 93 | 203 | 4.0 | 9.0 | 0.00 | 0.00 | 0.00 | 50 | 1012.0 |
| 20260902180604 | 93 | 219 | 5.0 | 11.0 | 0.00 | 0.00 | 0.00 | 51 | 1011.9 |
| 20260902180044 | 93 | 191 | 5.0 | 15.0 | 0.00 | 0.00 | 0.00 | 50 | 1012.1 |
| 20260902175558 | 93 | 245 | 7.0 | 15.0 | 0.00 | 0.00 | 0.00 | 49 | 1012.0 |
| 20260902175033 | 92 | 199 | 3.0 | 10.0 | 0.00 | 0.00 | 0.00 | 51 | 1012.0 |
| 20260902174548 | 91 | 203 | 2.0 | 8.0 | 0.00 | 0.00 | 0.00 | 53 | 1012.1 |
| 20260902174044 | 91 | 198 | 5.0 | 10.0 | 0.00 | 0.00 | 0.00 | 50 | 1012.3 |
| 20260902173540 | 91 | 210 | 4.0 | 12.0 | 0.00 | 0.00 | 0.00 | 50 | 1012.3 |
| 20260902173037 | 92 | 214 | 6.0 | 12.0 | 0.00 | 0.00 | 0.00 | 50 | 1012.4 |
| 20260902172533 | 92 | 186 | 3.0 | 10.0 | 0.00 | 0.00 | 0.00 | 52 | 1012.4 |
| 20260902172049 | 92 | 199 | 4.0 | 9.0 | 0.00 | 0.00 | 0.00 | 52 | 1012.5 |
| 20260902171546 | 91 | 207 | 2.0 | 9.0 | 0.00 | 0.00 | 0.00 | 52 | 1012.5 |
| 20260902171042 | 91 | 163 | 4.0 | 9.0 | 0.00 | 0.00 | 0.00 | 51 | 1012.6 |
| 20260902170550 | 91 | 201 | 4.0 | 11.0 | 0.00 | 0.00 | 0.00 | 51 | 1012.6 |
| 20260902170049 | 90 | 238 | 6.0 | 11.0 | 0.00 | 0.00 | 0.00 | 52 | 1012.6 |
| 20260902165544 | 90 | 188 | 3.0 | 9.0 | 0.00 | 0.00 | 0.00 | 54 | 1012.6 |
| 20260902165041 | 89 | 200 | 4.0 | 10.0 | 0.00 | 0.00 | 0.00 | 54 | 1012.5 |
| 20260902164536 | 89 | 174 | 4.0 | 11.0 | 0.00 | 0.00 | 0.00 | 54 | 1012.6 |
| 20260902164032 | 89 | 178 | 6.0 | 11.0 | 0.00 | 0.00 | 0.00 | 55 | 1012.6 |
| 20260902163531 | 88 | 174 | 3.0 | 9.0 | 0.00 | 0.00 | 0.00 | 55 | 1012.5 |
| 20260902163047 | 88 | 195 | 5.0 | 9.0 | 0.00 | 0.00 | 0.00 | 55 | 1012.5 |
| 20260902162605 | 87 | 197 | 3.0 | 8.0 | 0.00 | 0.00 | 0.00 | 60 | 1012.6 |
| 20260902162041 | 86 | 205 | 4.0 | 8.0 | 0.00 | 0.00 | 0.00 | 62 | 1012.6 |
| 20260902161536 | 85 | 186 | 3.0 | 8.0 | 0.00 | 0.00 | 0.00 | 64 | 1012.6 |
| 20260902161032 | 85 | 190 | 2.0 | 6.0 | 0.00 | 0.00 | 0.00 | 64 | 1012.6 |
| 20260902160603 | 84 | 192 | 3.0 | 6.0 | 0.00 | 0.00 | 0.00 | 64 | 1012.6 |
| 20260902160038 | 84 | 215 | 3.0 | 7.0 | 0.00 | 0.00 | 0.00 | 66 | 1012.6 |
| 20260902155534 | 84 | 174 | 4.0 | 8.0 | 0.00 | 0.00 | 0.00 | 63 | 1012.6 |
| 20260902155032 | 84 | 195 | 5.0 | 8.0 | 0.00 | 0.00 | 0.00 | 64 | 1012.6 |
| 20260902154547 | 84 | 195 | 4.0 | 8.0 | 0.00 | 0.00 | 0.00 | 66 | 1012.6 |
| 20260902154044 | 84 | 223 | 4.0 | 12.0 | 0.00 | 0.00 | 0.00 | 65 | 1012.6 |
| 20260902153539 | 83 | 207 | 5.0 | 12.0 | 0.00 | 0.00 | 0.00 | 64 | 1012.6 |
| 20260902153034 | 83 | 184 | 4.0 | 11.0 | 0.00 | 0.00 | 0.00 | 64 | 1012.5 |
| 20260902152549 | 83 | 186 | 3.0 | 10.0 | 0.00 | 0.00 | 0.00 | 64 | 1012.6 |
| 20260902152045 | 83 | 192 | 4.0 | 10.0 | 0.00 | 0.00 | 0.00 | 65 | 1012.6 |
| 20260902151540 | 83 | 199 | 5.0 | 10.0 | 0.00 | 0.00 | 0.00 | 64 | 1012.6 |
| 20260902151037 | 82 | 221 | 5.0 | 9.0 | 0.00 | 0.00 | 0.00 | 65 | 1012.6 |
| 20260902150609 | 82 | 188 | 5.0 | 8.0 | 0.00 | 0.00 | 0.00 | 65 | 1012.6 |
| 20260902150045 | 81 | 191 | 4.0 | 7.0 | 0.00 | 0.00 | 0.00 | 69 | 1012.6 |
| 20260902145542 | 80 | 187 | 1.0 | 5.0 | 0.00 | 0.00 | 0.00 | 70 | 1012.6 |
| 20260902145040 | 79 | 189 | 2.0 | 5.0 | 0.00 | 0.00 | 0.00 | 70 | 1012.5 |
| 20260902144537 | 78 | 184 | 2.0 | 7.0 | 0.00 | 0.00 | 0.00 | 70 | 1012.5 |
| 20260902144031 | 78 | 200 | 2.0 | 7.0 | 0.00 | 0.00 | 0.00 | 71 | 1012.6 |
| 20260902143547 | 78 | 142 | 2.0 | 6.0 | 0.00 | 0.00 | 0.00 | 71 | 1012.6 |
| 20260902143104 | 78 | 207 | 2.0 | 6.0 | 0.00 | 0.00 | 0.00 | 70 | 1012.7 |
| 20260902142538 | 78 | 193 | 2.0 | 5.0 | 0.00 | 0.00 | 0.00 | 68 | 1012.6 |
| 20260902142034 | 78 | 196 | 2.0 | 8.0 | 0.00 | 0.00 | 0.00 | 68 | 1012.6 |
| 20260902141549 | 78 | 148 | 2.0 | 8.0 | 0.00 | 0.00 | 0.00 | 68 | 1012.7 |
| 20260902141044 | 78 | 182 | 2.0 | 6.0 | 0.00 | 0.00 | 0.00 | 69 | 1012.8 |
| 20260902140552 | 78 | 209 | 3.0 | 6.0 | 0.00 | 0.00 | 0.00 | 69 | 1012.8 |
| 20260902140050 | 79 | 202 | 2.0 | 4.0 | 0.00 | 0.00 | 0.00 | 68 | 1012.8 |
| 20260902135545 | 79 | 203 | 2.0 | 4.0 | 0.00 | 0.00 | 0.00 | 67 | 1012.7 |
| 20260902135041 | 79 | 203 | 1.0 | 4.0 | 0.00 | 0.00 | 0.00 | 67 | 1012.9 |
| 20260902134537 | 79 | 213 | 1.0 | 3.0 | 0.00 | 0.00 | 0.00 | 68 | 1012.9 |
| 20260902134033 | 79 | 213 | 1.0 | 3.0 | 0.00 | 0.00 | 0.00 | 67 | 1012.9 |
| 20260902133611 | 79 | 221 | 1.0 | 3.0 | 0.00 | 0.00 | 0.00 | 66 | 1013.0 |
| 20260902133045 | 79 | 222 | 1.0 | 3.0 | 0.00 | 0.00 | 0.00 | 67 | 1013.0 |
| 20260902132540 | 78 | 252 | 2.0 | 4.0 | 0.00 | 0.00 | 0.00 | 68 | 1013.2 |
| 20260902132036 | 78 | 265 | 2.0 | 4.0 | 0.00 | 0.00 | 0.00 | 69 | 1013.1 |
| 20260902131531 | 78 | 344 | 0.0 | 2.0 | 0.00 | 0.00 | 0.00 | 68 | 1013.3 |
| 20260902131032 | 78 | 346 | 1.0 | 2.0 | 0.00 | 0.00 | 0.00 | 69 | 1013.2 |
| 20260902130559 | 77 | 346 | 1.0 | 2.0 | 0.00 | 0.00 | 0.00 | 69 | 1013.0 |
| 20260902130036 | 77 | 357 | 1.0 | 2.0 | 0.00 | 0.00 | 0.00 | 70 | 1012.9 |
| 20260902125553 | 76 | 357 | 0.0 | 3.0 | 0.00 | 0.00 | 0.00 | 70 | 1013.1 |
| 20260902125046 | 76 | 357 | 1.0 | 3.0 | 0.00 | 0.00 | 0.00 | 70 | 1012.9 |
| 20260902124542 | 76 | 357 | 2.0 | 3.0 | 0.00 | 0.00 | 0.00 | 70 | 1012.9 |
| 20260902124038 | 76 | 357 | 1.0 | 3.0 | 0.00 | 0.00 | 0.00 | 70 | 1013.0 |
| 20260902123534 | 76 | 357 | 2.0 | 3.0 | 0.00 | 0.00 | 0.00 | 70 | 1012.9 |
| 20260902123031 | 76 | 357 | 1.0 | 3.0 | 0.00 | 0.00 | 0.00 | 70 | 1012.9 |
| 20260902122608 | 76 | 357 | 0.0 | 2.0 | 0.00 | 0.00 | 0.00 | 70 | 1012.9 |
| 20260902122042 | 76 | 357 | 0.0 | 3.0 | 0.00 | 0.00 | 0.00 | 70 | 1012.9 |
| 20260902121539 | 76 | 357 | 1.0 | 3.0 | 0.00 | 0.00 | 0.00 | 70 | 1012.9 |
| 20260902121056 | 75 | 327 | 1.0 | 3.0 | 0.00 | 0.00 | 0.00 | 70 | 1012.8 |
| 20260902120629 | 75 | 327 | 2.0 | 3.0 | 0.00 | 0.00 | 0.00 | 71 | 1012.7 |
| 20260902120045 | 74 | 326 | 0.0 | 2.0 | 0.00 | 0.00 | 0.00 | 74 | 1012.6 |
| 20260902115542 | 74 | 326 | 1.0 | 2.0 | 0.00 | 0.00 | 0.00 | 74 | 1012.6 |
| 20260902115057 | 74 | 326 | 2.0 | 2.0 | 0.00 | 0.00 | 0.00 | 76 | 1012.5 |
| 20260902114532 | 74 | 326 | 1.0 | 3.0 | 0.00 | 0.00 | 0.00 | 76 | 1012.6 |
| 20260902114048 | 74 | 326 | 1.0 | 3.0 | 0.00 | 0.00 | 0.00 | 75 | 1012.7 |
| 20260902113544 | 74 | 75 | 0.0 | 2.0 | 0.00 | 0.00 | 0.00 | 74 | 1012.7 |
| 20260902113059 | 75 | 75 | 1.0 | 3.0 | 0.00 | 0.00 | 0.00 | 72 | 1012.6 |
| 20260902112534 | 75 | 75 | 0.0 | 3.0 | 0.00 | 0.00 | 0.00 | 71 | 1012.6 |
| 20260902112111 | 76 | 75 | 1.0 | 3.0 | 0.00 | 0.00 | 0.00 | 70 | 1012.6 |
| 20260902111608 | 76 | 75 | 1.0 | 2.0 | 0.00 | 0.00 | 0.00 | 69 | 1012.6 |
| 20260902111043 | 76 | 75 | 1.0 | 2.0 | 0.00 | 0.00 | 0.00 | 68 | 1012.6 |
| 20260902110551 | 76 | 75 | 0.0 | 1.0 | 0.00 | 0.00 | 0.00 | 68 | 1012.6 |
| 20260902110048 | 77 | 75 | 0.0 | 1.0 | 0.00 | 0.00 | 0.00 | 67 | 1012.5 |
| 20260902105544 | 77 | 75 | 1.0 | 2.0 | 0.00 | 0.00 | 0.00 | 67 | 1012.5 |
| 20260902105044 | 76 | 75 | 0.0 | 2.0 | 0.00 | 0.00 | 0.00 | 68 | 1012.5 |
| 20260902104539 | 76 | 75 | 1.0 | 3.0 | 0.00 | 0.00 | 0.00 | 68 | 1012.4 |
| 20260902104035 | 76 | 75 | 2.0 | 4.0 | 0.00 | 0.00 | 0.00 | 68 | 1012.5 |
| 20260902103531 | 76 | 75 | 1.0 | 4.0 | 0.00 | 0.00 | 0.00 | 69 | 1012.6 |
| 20260902103109 | 76 | 272 | 0.0 | 1.0 | 0.00 | 0.00 | 0.00 | 69 | 1012.7 |
| 20260902102543 | 76 | 272 | 0.0 | 1.0 | 0.00 | 0.00 | 0.00 | 69 | 1012.8 |
| 20260902102059 | 76 | 272 | 0.0 | 0.0 | 0.00 | 0.00 | 0.00 | 69 | 1012.8 |
| 20260902101535 | 77 | 272 | 0.0 | 1.0 | 0.00 | 0.00 | 0.00 | 68 | 1012.8 |
| 20260902101030 | 77 | 272 | 0.0 | 2.0 | 0.00 | 0.00 | 0.00 | 66 | 1012.8 |
| 20260902100624 | 77 | 272 | 1.0 | 2.0 | 0.00 | 0.00 | 0.00 | 65 | 1012.9 |
| 20260902100038 | 77 | 272 | 0.0 | 2.0 | 0.00 | 0.00 | 0.00 | 66 | 1012.9 |
| 20260902095533 | 77 | 272 | 1.0 | 2.0 | 0.00 | 0.00 | 0.00 | 65 | 1012.9 |
| 20260902095030 | 77 | 272 | 1.0 | 3.0 | 0.00 | 0.00 | 0.00 | 66 | 1012.8 |
| 20260902094545 | 77 | 272 | 1.0 | 3.0 | 0.00 | 0.00 | 0.00 | 66 | 1012.8 |
| 20260902094103 | 77 | 330 | 0.0 | 4.0 | 0.00 | 0.00 | 0.00 | 66 | 1012.9 |
| 20260902093537 | 77 | 329 | 2.0 | 4.0 | 0.00 | 0.00 | 0.00 | 66 | 1013.0 |
| 20260902093035 | 78 | 329 | 1.0 | 2.0 | 0.00 | 0.00 | 0.00 | 66 | 1013.0 |
| 20260902092548 | 78 | 329 | 1.0 | 2.0 | 0.00 | 0.00 | 0.00 | 66 | 1013.1 |
| 20260902092106 | 78 | 329 | 0.0 | 3.0 | 0.00 | 0.00 | 0.00 | 64 | 1013.1 |
| 20260902091540 | 78 | 329 | 1.0 | 3.0 | 0.00 | 0.00 | 0.00 | 63 | 1013.2 |
| 20260902091037 | 78 | 329 | 1.0 | 3.0 | 0.00 | 0.00 | 0.00 | 64 | 1013.1 |
| 20260902090609 | 78 | 329 | 1.0 | 3.0 | 0.00 | 0.00 | 0.00 | 64 | 1013.1 |
| 20260902090044 | 77 | 338 | 1.0 | 3.0 | 0.00 | 0.00 | 0.00 | 66 | 1012.9 |
| 20260902085544 | 76 | 338 | 2.0 | 4.0 | 0.00 | 0.00 | 0.00 | 69 | 1013.0 |
| 20260902085039 | 76 | 338 | 1.0 | 7.0 | 0.00 | 0.00 | 0.00 | 70 | 1013.0 |
| 20260902084555 | 76 | 347 | 3.0 | 7.0 | 0.00 | 0.00 | 0.00 | 71 | 1013.0 |
| 20260902084030 | 76 | 1 | 4.0 | 7.0 | 0.00 | 0.00 | 0.00 | 70 | 1013.1 |
| 20260902083546 | 76 | 335 | 1.0 | 3.0 | 0.00 | 0.00 | 0.00 | 71 | 1012.9 |
| 20260902083042 | 76 | 335 | 1.0 | 7.0 | 0.00 | 0.00 | 0.00 | 70 | 1012.9 |
| 20260902082558 | 76 | 346 | 4.0 | 7.0 | 0.00 | 0.00 | 0.00 | 70 | 1013.2 |
| 20260902082033 | 77 | 338 | 3.0 | 4.0 | 0.00 | 0.00 | 0.00 | 68 | 1013.1 |
| 20260902081549 | 77 | 200 | 0.0 | 3.0 | 0.00 | 0.00 | 0.00 | 67 | 1012.6 |
| 20260902081106 | 78 | 200 | 1.0 | 3.0 | 0.00 | 0.00 | 0.00 | 67 | 1012.5 |
| 20260902080554 | 78 | 200 | 1.0 | 3.0 | 0.00 | 0.00 | 0.00 | 67 | 1012.4 |
| 20260902080050 | 78 | 200 | 1.0 | 3.0 | 0.00 | 0.00 | 0.00 | 66 | 1012.4 |